QPF
0.00 0.00 0.00 0.00 0.00 0.00 0.00 0.00 0.00 0.00 0.00 0.00 0.00 0.00 0.00 0.00 0.00 0.00 0.00 0.02 0.01 0.01
0.00 0.00 0.00 0.00 0.00 0.00 0.00 0.00 0.00 0.00 0.00 0.00 0.00 0.00 0.00 0.00 0.00 0.00 0.00 0.00 0.00 0.00
0.00 0.00 0.00 0.00 0.00 0.00 0.00 0.00 0.00 0.00 0.00 0.00 0.00 0.00 0.00 0.00 0.00 0.00 0.00 0.00 0.00 0.00
0.00 0.00 0.00 0.00 0.00 0.00 0.00 0.00 0.00 0.00 0.00 0.00 0.00 0.00 0.00 0.00 0.00 0.00 0.00 0.00 0.00 0.01
0.00 0.00 0.00 0.00 0.00 0.00 0.00 0.00 0.00 0.00 0.00 0.00 0.00 0.00 0.00 0.01 0.01 0.00 0.00 0.00 0.00 0.00
0.00 0.00 0.00 0.00 0.00 0.00 0.00 0.00 0.00 0.00 0.00 0.00 0.00 0.01 0.00 0.00 0.00 0.00 0.00 0.00 0.00 0.00
0.00 0.00 0.00 0.00 0.00 0.00 0.00 0.00 0.00 0.00 0.00 0.00 0.00 0.00 0.00 0.00 0.00 0.00 0.00 0.00 0.01 0.00
0.00 0.00 0.00 0.00 0.00 0.00 0.00 0.00 0.00 0.00 0.00 0.00 0.00 0.00 0.00 0.00 0.00 0.00 0.00 0.00 0.00 0.00
0.00 0.00 0.00 0.00 0.00 0.00 0.00 0.00 0.00 0.00 0.00 0.01 0.04 0.02 0.00 0.00 0.00 0.00 0.00 0.00 0.01 0.00
0.00 0.00 0.00 0.00 0.00 0.00 0.00 0.00 0.00 0.00 0.00 0.03 0.15 0.11 0.08 0.03 0.00 0.00 0.00 0.00 0.01 0.07
0.00 0.00 0.00 0.00 0.00 0.00 0.00 0.00 0.00 0.00 0.01 0.03 0.09 0.13 0.13 0.14 0.03 0.01 0.03 0.02 0.09 0.12
0.00 0.00 0.00 0.00 0.00 0.00 0.00 0.00 0.00 0.00 0.00 0.00 0.01 0.01 0.02 0.03 0.00 0.01 0.01 0.02 0.03 0.03
0.00 0.00 0.00 0.00 0.00 0.00 0.00 0.00 0.00 0.00 0.00 0.00 0.00 0.00 0.00 0.00 0.00 0.00 0.00 0.00 0.00 0.00
0.00 0.00 0.00 0.00 0.00 0.00 0.00 0.00 0.00 0.00 0.00 0.00 0.00 0.00 0.00 0.00 0.00 0.00 0.00 0.00 0.00 0.00
MSLP
1008.41 1008.43 1008.50 1008.52 1008.45 1008.36 1008.35 1008.43 1008.58 1008.81 1008.96 1009.08 1009.19 1009.60 1010.01 1010.38 1010.67 1010.80 1011.05 1011.28 1011.32 1011.57
1008.21 1008.23 1008.42 1008.40 1008.27 1008.28 1008.31 1008.39 1008.54 1008.79 1008.91 1009.09 1009.24 1009.71 1010.09 1010.50 1010.79 1011.03 1011.29 1011.45 1011.51 1011.74
1008.02 1008.16 1008.37 1008.31 1008.26 1008.30 1008.34 1008.40 1008.54 1008.83 1009.01 1009.20 1009.46 1009.88 1010.25 1010.64 1010.89 1011.13 1011.43 1011.63 1011.75 1012.07
1008.09 1008.26 1008.45 1008.33 1008.24 1008.38 1008.43 1008.49 1008.61 1008.80 1009.14 1009.53 1009.81 1010.14 1010.47 1010.74 1011.00 1011.26 1011.58 1011.93 1012.01 1012.37
1008.19 1008.37 1008.55 1008.46 1008.40 1008.45 1008.45 1008.46 1008.59 1008.83 1009.13 1009.60 1010.00 1010.29 1010.58 1010.89 1011.19 1011.44 1011.75 1012.03 1012.29 1012.66
1008.33 1008.58 1008.72 1008.64 1008.50 1008.48 1008.55 1008.68 1008.88 1009.04 1009.42 1009.88 1010.23 1010.55 1010.81 1011.10 1011.41 1011.70 1011.95 1012.28 1012.48 1012.88
1008.43 1008.69 1008.80 1008.71 1008.59 1008.57 1008.71 1008.91 1009.10 1009.23 1009.59 1010.08 1010.42 1010.72 1010.93 1011.19 1011.54 1011.85 1012.19 1012.47 1012.72 1012.98
1008.47 1008.73 1008.86 1008.75 1008.72 1008.77 1008.88 1009.18 1009.46 1009.62 1009.92 1010.31 1010.71 1011.01 1011.33 1011.61 1011.84 1012.15 1012.52 1012.79 1013.12 1013.42
1008.55 1008.77 1009.01 1009.04 1009.04 1009.12 1009.27 1009.46 1009.57 1009.91 1010.14 1010.53 1011.07 1011.43 1011.71 1011.92 1012.22 1012.51 1012.78 1013.11 1013.52 1013.95
1008.63 1008.83 1009.16 1009.29 1009.40 1009.51 1009.65 1009.73 1009.94 1010.06 1010.39 1010.78 1011.41 1011.76 1012.09 1012.41 1012.61 1012.90 1013.18 1013.48 1013.78 1014.21
1008.69 1008.89 1009.31 1009.62 1009.83 1009.97 1010.10 1010.26 1010.36 1010.45 1010.67 1011.03 1011.37 1011.77 1012.22 1012.57 1012.87 1013.20 1013.51 1013.73 1014.12 1014.48
1008.63 1008.90 1009.24 1009.76 1010.11 1010.32 1010.34 1010.63 1010.71 1010.89 1011.02 1011.41 1012.05 1012.11 1012.42 1012.61 1013.03 1013.31 1013.67 1013.96 1014.45 1014.79
1008.40 1008.81 1009.23 1009.63 1010.05 1010.47 1010.65 1010.85 1011.05 1011.31 1011.59 1011.84 1012.27 1012.57 1012.80 1013.07 1013.27 1013.68 1014.03 1014.59 1015.04 1015.38
1008.23 1008.66 1009.11 1009.64 1010.09 1010.59 1010.93 1011.17 1011.51 1011.77 1012.07 1012.32 1012.60 1012.98 1013.15 1013.30 1013.56 1013.88 1014.40 1014.92 1015.51 1015.89
Thickness
5642 5638 5633 5628 5624 5620 5616 5615 5613 5610 5609 5609 5609 5609 5608 5608 5610 5612 5614 5615 5620 5620
5643 5639 5633 5628 5625 5621 5617 5617 5615 5612 5611 5611 5612 5611 5611 5610 5611 5612 5614 5618 5621 5623
5644 5640 5633 5630 5625 5620 5619 5619 5618 5615 5614 5614 5614 5613 5613 5613 5613 5614 5616 5619 5622 5622
5644 5639 5633 5631 5627 5623 5623 5622 5621 5619 5617 5616 5615 5614 5615 5615 5616 5617 5618 5619 5623 5622
5644 5639 5634 5632 5629 5627 5627 5627 5625 5624 5622 5619 5618 5618 5618 5617 5618 5618 5618 5620 5622 5622
5643 5637 5633 5632 5631 5631 5630 5628 5627 5626 5624 5620 5619 5618 5619 5619 5619 5619 5621 5622 5624 5623
5643 5637 5635 5635 5634 5633 5632 5630 5629 5628 5625 5622 5620 5620 5621 5621 5620 5621 5622 5624 5624 5625
5644 5640 5638 5638 5638 5637 5635 5632 5629 5627 5625 5623 5620 5619 5619 5618 5619 5620 5622 5623 5623 5623
5647 5644 5642 5640 5639 5638 5636 5634 5631 5628 5625 5621 5619 5615 5616 5618 5618 5619 5621 5622 5622 5620
5650 5647 5643 5641 5639 5638 5637 5635 5633 5629 5625 5620 5616 5613 5614 5615 5617 5617 5618 5620 5621 5620
5653 5650 5646 5643 5640 5638 5637 5636 5633 5631 5626 5624 5621 5614 5613 5615 5617 5617 5618 5619 5620 5620
5658 5654 5650 5647 5644 5641 5640 5637 5635 5633 5631 5628 5621 5618 5614 5619 5619 5620 5620 5620 5620 5620
5663 5659 5654 5651 5648 5644 5642 5641 5639 5636 5634 5630 5627 5622 5622 5623 5623 5622 5622 5621 5620 5620
5667 5663 5660 5655 5651 5648 5645 5643 5640 5638 5635 5634 5633 5629 5628 5630 5629 5628 5626 5625 5624 5624